This demonstration page uses our WeatherBlox Daily Observations layout. Learn more.

Left ArrowRight Arrow

39.08367, -84.50855

Hourly Observations for April 5, 2015

Temp ( °F °C ) Dew Point ( °F °C ) Humidity (%) Winds ( mph kmh ) Pressure ( in mb ) Visibility ( mi km ) Precip ( " mm )
12:53 am 00:53 Clear 40 4.4 32 undefined 73 73 N N/A 30.31 1026 10 16 N/A
1:53 am 01:53 Clear 38 3.3 31 -0.6 76 76 N N/A 30.30 1026 10 16 N/A
2:53 am 02:53 Clear 37 2.8 32 undefined 82 82 N N/A 30.29 1026 10 16 N/A
3:53 am 03:53 Clear 35 1.7 32 undefined 89 89 N N/A 30.27 1025 10 16 N/A
4:53 am 04:53 Clear 35 1.7 32 undefined 89 89 N N/A 30.27 1025 10 16 N/A
5:53 am 05:53 Clear 34 1.1 33 0.6 97 97 N N/A 30.27 1025 10 16 N/A
6:53 am 06:53 Clear 33 0.6 33 0.6 100 100 N N/A 30.28 1025 10 16 N/A
7:53 am 07:53 Sunny 31 -0.6 31 -0.6 100 100 S 5 7 30.30 1026 8 13 N/A
8:53 am 08:53 Sunny 37 2.8 36 2.2 96 96 N N/A 30.30 1026 10 16 N/A
9:53 am 09:53 Sunny 45 7.2 35 1.7 68 68 SSW 3 6 30.30 1026 10 16 N/A
10:53 am 10:53 Sunny 54 12.2 36 2.2 51 51 VRB 5 7 30.29 1026 10 16 N/A
11:53 am 11:53 Sunny 57 13.9 27 -2.8 32 32 SW 12 19 30.27 1025 10 16 N/A
12:53 pm 12:53 Sunny 59 15 26 -3.3 28 28 SSW 12 19 30.23 1024 10 16 N/A
1:53 pm 13:53 Sunny 61 16.1 26 -3.3 26 26 SSW 20 31 30.21 1023 10 16 N/A
2:53 pm 14:53 Sunny 62 16.7 26 -3.3 25 25 SW 16 26 30.19 1022 10 16 N/A
3:53 pm 15:53 Sunny 62 16.7 26 -3.3 25 25 S 10 17 30.16 1021 10 16 N/A
4:53 pm 16:53 Sunny 63 17.2 22 -5.6 21 21 SW 7 11 30.14 1021 10 16 N/A
5:53 pm 17:53 Sunny 62 16.7 27 -2.8 26 26 SW 8 13 30.13 1020 10 16 N/A
6:53 pm 18:53 Sunny 60 15.6 25 -3.9 26 26 SSW 8 13 30.14 1021 10 16 N/A
7:53 pm 19:53 Sunny 56 13.3 26 -3.3 32 32 SSW 7 11 30.15 1021 10 16 N/A
8:53 pm 20:53 Clear 53 11.7 27 -2.8 37 37 S 3 6 30.15 1021 10 16 N/A
9:53 pm 21:53 Clear 49 9.4 35 1.7 59 59 S 5 7 30.15 1021 10 16 N/A
10:53 pm 22:53 Clear 47 8.3 37 2.8 69 69 S 3 6 30.14 1021 10 16 N/A
11:53 pm 23:53 Clear 42 5.6 35 1.7 76 76 N N/A 30.14 1021 10 16 N/A

Powered by AerisWeather